�������l�o���
Date,Time,MP-1(��Sv/h),MP-2(��Sv/h),MP-3(��Sv/h),MP-4(��Sv/h),MP-5(��Sv/h),MP-6(��Sv/h),MP-7(��Sv/h),����,����(m/s),���J
2022/09/14,00:00,0.155,0.144,0.226,0.217,0.218,0.123,0.080,���k��,0.6,��
2022/09/14,00:10,0.155,0.144,0.229,0.216,0.216,0.124,0.079,���k��,0.7,��
2022/09/14,00:20,0.153,0.144,0.226,0.219,0.218,0.124,0.079,�쐼,0.8,��
2022/09/14,00:30,0.155,0.144,0.227,0.217,0.218,0.123,0.079,�쐼,0.7,��
2022/09/14,00:40,0.155,0.145,0.229,0.218,0.217,0.124,0.080,���쐼,0.7,��
2022/09/14,00:50,0.155,0.145,0.226,0.219,0.218,0.124,0.080,-,CALM,��
2022/09/14,01:00,0.155,0.145,0.228,0.216,0.218,0.123,0.079,-,CALM,��
2022/09/14,01:10,0.155,0.145,0.228,0.218,0.216,0.124,0.080,-,CALM,��
2022/09/14,01:20,0.154,0.143,0.227,0.216,0.218,0.124,0.080,-,CALM,��
2022/09/14,01:30,0.157,0.145,0.228,0.217,0.217,0.123,0.079,�k,1.2,��
2022/09/14,01:40,0.155,0.145,0.227,0.218,0.217,0.125,0.080,-,CALM,��
2022/09/14,01:50,0.154,0.144,0.228,0.217,0.220,0.124,0.080,-,CALM,��
2022/09/14,02:00,0.156,0.145,0.227,0.218,0.217,0.123,0.079,-,CALM,��
2022/09/14,02:10,0.155,0.144,0.225,0.219,0.217,0.125,0.080,-,CALM,��
2022/09/14,02:20,0.155,0.144,0.229,0.215,0.219,0.124,0.080,�k�k��,0.8,��
2022/09/14,02:30,0.156,0.144,0.227,0.218,0.216,0.122,0.080,�k�k��,0.6,��
2022/09/14,02:40,0.155,0.144,0.227,0.217,0.217,0.124,0.080,�k��,0.6,��
2022/09/14,02:50,0.155,0.145,0.228,0.215,0.218,0.124,0.079,�k�k��,0.6,��
2022/09/14,03:00,0.155,0.145,0.225,0.219,0.216,0.123,0.080,�k��,2.4,��
2022/09/14,03:10,0.155,0.144,0.229,0.215,0.216,0.123,0.079,�k,1.0,��
2022/09/14,03:20,0.157,0.146,0.228,0.219,0.219,0.124,0.080,�k�k��,1.9,��
2022/09/14,03:30,0.156,0.144,0.228,0.218,0.217,0.124,0.080,�k,2.1,��
2022/09/14,03:40,0.155,0.145,0.228,0.216,0.218,0.125,0.080,�k,2.5,��
2022/09/14,03:50,0.156,0.145,0.227,0.219,0.219,0.124,0.080,�k�k��,2.6,��
2022/09/14,04:00,0.156,0.145,0.228,0.217,0.216,0.124,0.081,�k�k��,2.5,��
2022/09/14,04:10,0.155,0.145,0.227,0.218,0.219,0.125,0.080,�k�k��,3.8,��
2022/09/14,04:20,0.157,0.145,0.227,0.218,0.219,0.124,0.080,�k,3.7,��
2022/09/14,04:30,0.155,0.145,0.228,0.217,0.216,0.124,0.080,�k,4.9,��
2022/09/14,04:40,0.156,0.144,0.226,0.219,0.219,0.124,0.080,�k,5.3,��
2022/09/14,04:50,0.155,0.144,0.228,0.218,0.217,0.124,0.080,�k,5.1,��
2022/09/14,05:00,0.153,0.145,0.227,0.216,0.217,0.124,0.080,�k,5.5,��
2022/09/14,05:10,0.155,0.144,0.227,0.219,0.218,0.124,0.080,�k,4.9,��
2022/09/14,05:20,0.155,0.145,0.227,0.218,0.215,0.124,0.080,�k�k��,5.9,��
2022/09/14,05:30,0.154,0.145,0.226,0.218,0.217,0.124,0.079,�k,4.6,��
2022/09/14,05:40,0.156,0.144,0.229,0.219,0.218,0.123,0.080,�k�k��,4.5,��
2022/09/14,05:50,0.156,0.145,0.226,0.216,0.215,0.124,0.080,�k,4.7,��
2022/09/14,06:00,0.154,0.143,0.227,0.218,0.219,0.124,0.079,�k�k��,4.6,��
2022/09/14,06:10,0.155,0.144,0.228,0.217,0.218,0.123,0.081,�k,4.7,��
2022/09/14,06:20,0.155,0.144,0.225,0.217,0.216,0.124,0.079,�k,5.1,��
2022/09/14,06:30,0.155,0.144,0.228,0.218,0.219,0.124,0.079,�k,5.4,��
2022/09/14,06:40,0.156,0.144,0.227,0.216,0.218,0.123,0.078,�k,6.1,��
2022/09/14,06:50,0.154,0.144,0.225,0.220,0.215,0.124,0.079,�k,6.6,��
2022/09/14,07:00,0.154,0.143,0.227,0.217,0.219,0.125,0.079,�k,4.8,��
2022/09/14,07:10,0.156,0.144,0.226,0.216,0.218,0.123,0.079,�k�k��,4.5,��
2022/09/14,07:20,0.154,0.144,0.224,0.216,0.215,0.123,0.079,�k�k��,6.0,��
2022/09/14,07:30,0.153,0.143,0.222,0.218,0.216,0.123,0.079,�k�k��,4.9,��
2022/09/14,07:40,0.156,0.143,0.222,0.216,0.218,0.122,0.079,�k�k��,4.8,��
2022/09/14,07:50,0.155,0.143,0.223,0.215,0.215,0.124,0.078,�k,2.9,��
2022/09/14,08:00,0.154,0.143,0.224,0.213,0.214,0.123,0.078,�k,3.5,��
2022/09/14,08:10,0.154,0.144,0.225,0.214,0.218,0.123,0.079,�k,3.0,��
2022/09/14,08:20,0.155,0.144,0.224,0.214,0.218,0.123,0.078,�k,3.3,��
2022/09/14,08:30,0.154,0.143,0.224,0.214,0.215,0.123,0.079,�k,3.3,��
2022/09/14,08:40,0.153,0.142,0.224,0.214,0.214,0.122,0.079,�k,3.4,��
2022/09/14,08:50,0.153,0.143,0.226,0.215,0.214,0.123,0.078,�k�k��,4.5,��
2022/09/14,09:00,0.152,0.143,0.225,0.214,0.214,0.122,0.079,�k�k��,4.8,��
2022/09/14,09:10,0.154,0.142,0.225,0.216,0.215,0.122,0.079,�k�k��,5.3,��
2022/09/14,09:20,0.152,0.142,0.226,0.215,0.214,0.123,0.078,�k�k��,7.9,��
2022/09/14,09:30,0.152,0.141,0.225,0.216,0.215,0.123,0.078,�k�k��,6.8,��
2022/09/14,09:40,0.152,0.141,0.224,0.215,0.214,0.123,0.079,�k�k��,7.5,��
2022/09/14,09:50,0.153,0.141,0.224,0.215,0.216,0.122,0.077,�k�k��,7.6,��
2022/09/14,10:00,0.152,0.141,0.224,0.216,0.215,0.123,0.078,�k,6.0,��
2022/09/14,10:10,0.153,0.141,0.225,0.218,0.215,0.122,0.078,�k,5.9,��
2022/09/14,10:20,0.152,0.141,0.225,0.216,0.214,0.122,0.078,�k,4.6,��
2022/09/14,10:30,0.154,0.140,0.225,0.216,0.216,0.122,0.078,�k�k��,5.4,��
2022/09/14,10:40,0.152,0.142,0.224,0.216,0.215,0.123,0.079,�k�k��,5.0,��
2022/09/14,10:50,0.152,0.142,0.224,0.217,0.217,0.122,0.079,�k��,4.4,��
2022/09/14,11:00,0.153,0.143,0.224,0.215,0.215,0.121,0.078,�k�k��,6.6,��
2022/09/14,11:10,0.153,0.142,0.225,0.217,0.215,0.123,0.078,�k�k��,5.8,��
2022/09/14,11:20,0.153,0.141,0.224,0.216,0.216,0.123,0.078,�k,5.1,��
2022/09/14,11:30,0.152,0.142,0.225,0.215,0.216,0.123,0.078,�k,5.7,��
2022/09/14,11:40,0.153,0.142,0.226,0.215,0.214,0.123,0.079,�k,6.0,��
2022/09/14,11:50,0.153,0.143,0.226,0.215,0.216,0.122,0.078,�k,6.1,��
2022/09/14,12:00,0.153,0.144,0.225,0.218,0.216,0.123,0.078,�k�k��,5.9,��
2022/09/14,12:10,0.154,0.142,0.225,0.218,0.216,0.123,0.078,�k�k��,5.6,��
2022/09/14,12:20,0.153,0.142,0.227,0.216,0.215,0.123,0.078,�k�k��,4.1,��
2022/09/14,12:30,0.153,0.142,0.226,0.216,0.216,0.122,0.078,�k�k��,4.8,��
2022/09/14,12:40,0.154,0.143,0.226,0.218,0.215,0.122,0.078,�k�k��,3.1,��
2022/09/14,12:50,0.154,0.143,0.226,0.217,0.215,0.122,0.079,�k��,3.6,��
2022/09/14,13:00,0.153,0.143,0.225,0.218,0.216,0.123,0.079,�k�k��,3.8,��
2022/09/14,13:10,0.154,0.144,0.226,0.217,0.215,0.123,0.079,�k�k��,4.7,��
2022/09/14,13:20,0.153,0.143,0.227,0.217,0.216,0.124,0.078,�k��,3.9,��
2022/09/14,13:30,0.154,0.143,0.225,0.217,0.215,0.123,0.078,�k�k��,5.0,��
2022/09/14,13:40,0.153,0.141,0.225,0.217,0.214,0.121,0.078,�k��,5.5,��
2022/09/14,13:50,0.153,0.143,0.225,0.216,0.214,0.122,0.079,�k��,6.1,��
2022/09/14,14:00,0.154,0.143,0.225,0.214,0.212,0.122,0.079,�k��,4.9,��
2022/09/14,14:10,0.155,0.142,0.224,0.215,0.214,0.121,0.078,�k��,5.7,��
2022/09/14,14:20,0.155,0.144,0.229,0.218,0.214,0.122,0.078,�k��,5.4,��
2022/09/14,14:30,0.153,0.145,0.228,0.219,0.216,0.122,0.078,�k��,6.2,��
2022/09/14,14:40,0.154,0.144,0.226,0.218,0.218,0.124,0.079,�k��,5.9,��
2022/09/14,14:50,0.156,0.143,0.226,0.217,0.217,0.123,0.079,�k��,4.8,��
2022/09/14,15:00,0.156,0.144,0.227,0.217,0.216,0.123,0.077,�k��,4.9,��
2022/09/14,15:10,0.154,0.144,0.229,0.219,0.216,0.122,0.078,�k��,3.7,��
2022/09/14,15:20,0.154,0.144,0.226,0.217,0.218,0.124,0.079,�k��,4.5,��
2022/09/14,15:30,0.155,0.143,0.225,0.216,0.217,0.123,0.079,�k��,3.7,��
2022/09/14,15:40,0.155,0.144,0.227,0.217,0.214,0.122,0.078,�k��,4.6,��
2022/09/14,15:50,0.154,0.143,0.228,0.218,0.218,0.124,0.079,�k��,3.2,��
2022/09/14,16:00,0.156,0.144,0.227,0.217,0.217,0.123,0.079,�k��,4.2,��
2022/09/14,16:10,0.155,0.144,0.227,0.217,0.216,0.122,0.079,�k��,3.1,��
2022/09/14,16:20,0.154,0.143,0.227,0.218,0.216,0.122,0.078,�k��,3.9,�L
2022/09/14,16:30,0.155,0.142,0.225,0.217,0.219,0.123,0.078,�k��,2.9,�L
2022/09/14,16:40,0.156,0.144,0.227,0.217,0.216,0.123,0.078,�k��,4.9,�L
2022/09/14,16:50,0.154,0.143,0.228,0.219,0.215,0.122,0.078,�k��,4.2,�L
2022/09/14,17:00,0.154,0.142,0.228,0.217,0.218,0.122,0.078,�k��,5.0,�L
2022/09/14,17:10,0.156,0.144,0.226,0.217,0.216,0.123,0.078,�k��,4.8,�L
2022/09/14,17:20,0.154,0.142,0.227,0.220,0.216,0.122,0.078,�k��,5.0,�L
2022/09/14,17:30,0.154,0.143,0.226,0.217,0.219,0.123,0.078,���k��,5.2,�L
2022/09/14,17:40,0.154,0.144,0.227,0.217,0.216,0.123,0.079,���k��,5.7,��
2022/09/14,17:50,0.153,0.143,0.227,0.220,0.215,0.122,0.078,���k��,4.9,�L
2022/09/14,18:00,0.155,0.143,0.224,0.217,0.217,0.123,0.078,���k��,4.4,��
2022/09/14,18:10,0.155,0.143,0.228,0.217,0.217,0.123,0.078,���k��,5.0,�L
2022/09/14,18:20,0.153,0.143,0.228,0.220,0.216,0.122,0.078,���k��,4.4,�L
2022/09/14,18:30,0.155,0.144,0.225,0.217,0.218,0.122,0.078,�k��,4.8,��
2022/09/14,18:40,0.155,0.143,0.227,0.217,0.215,0.123,0.078,���k��,5.1,��
2022/09/14,18:50,0.153,0.143,0.225,0.218,0.216,0.122,0.078,���k��,5.4,��
2022/09/14,19:00,0.154,0.143,0.226,0.216,0.218,0.122,0.078,���k��,4.5,��
2022/09/14,19:10,0.154,0.143,0.228,0.219,0.216,0.123,0.078,���k��,5.2,�L
2022/09/14,19:20,0.154,0.143,0.225,0.218,0.216,0.122,0.077,���k��,5.0,�L
2022/09/14,19:30,0.154,0.144,0.227,0.216,0.218,0.123,0.078,�k��,4.5,��
2022/09/14,19:40,0.153,0.143,0.227,0.219,0.215,0.123,0.079,���k��,5.7,��
2022/09/14,19:50,0.153,0.143,0.226,0.216,0.216,0.122,0.078,�k��,4.8,�L
2022/09/14,20:00,0.155,0.142,0.228,0.215,0.218,0.123,0.079,���k��,4.3,��
2022/09/14,20:10,0.155,0.142,0.227,0.219,0.215,0.124,0.077,�k��,3.5,��
2022/09/14,20:20,0.154,0.144,0.225,0.217,0.217,0.122,0.078,�k,2.3,�L
2022/09/14,20:30,0.155,0.143,0.228,0.217,0.216,0.122,0.078,�k,1.7,�L
2022/09/14,20:40,0.153,0.143,0.226,0.218,0.215,0.123,0.078,�k,2.0,�L
2022/09/14,20:50,0.155,0.144,0.227,0.217,0.219,0.122,0.078,�k��,0.9,�L
2022/09/14,21:00,0.155,0.144,0.228,0.219,0.216,0.123,0.079,�k�k��,0.7,�L
2022/09/14,21:10,0.153,0.144,0.228,0.218,0.218,0.124,0.078,�k��,2.2,�L
2022/09/14,21:20,0.155,0.144,0.228,0.219,0.220,0.124,0.080,�k��,3.1,�L
2022/09/14,21:30,0.156,0.145,0.228,0.219,0.218,0.126,0.079,�k��,4.4,�L
2022/09/14,21:40,0.154,0.145,0.229,0.218,0.220,0.124,0.079,�k��,3.4,�L
2022/09/14,21:50,0.156,0.145,0.228,0.220,0.218,0.125,0.080,�k��,2.4,�L
2022/09/14,22:00,0.156,0.145,0.228,0.218,0.219,0.125,0.080,���k��,2.3,�L
2022/09/14,22:10,0.157,0.145,0.228,0.220,0.219,0.124,0.080,�k�k��,2.6,�L
2022/09/14,22:20,0.157,0.145,0.229,0.218,0.218,0.125,0.080,�k�k��,2.4,�L
2022/09/14,22:30,0.156,0.144,0.228,0.219,0.217,0.125,0.080,�k�k��,2.3,�L
2022/09/14,22:40,0.158,0.145,0.226,0.220,0.216,0.123,0.080,�k�k��,2.5,�L
2022/09/14,22:50,0.155,0.144,0.229,0.217,0.218,0.124,0.080,�k�k��,2.5,�L
2022/09/14,23:00,0.157,0.144,0.227,0.220,0.217,0.124,0.080,�k�k��,2.9,�L
2022/09/14,23:10,0.154,0.144,0.227,0.216,0.217,0.124,0.080,�k�k��,2.9,�L
2022/09/14,23:20,0.155,0.145,0.228,0.220,0.218,0.123,0.079,�k�k��,3.4,�L
2022/09/14,23:30,0.156,0.144,0.227,0.217,0.216,0.123,0.079,�k�k��,2.3,�L
2022/09/14,23:40,0.153,0.144,0.227,0.218,0.218,0.123,0.079,�k�k��,2.7,�L
2022/09/14,23:50,0.156,0.144,0.227,0.219,0.216,0.123,0.079,�k�k��,1.9,�L
